NOAA 17 DEB, 48162

Orbit data source: Space-Track

NOAA 17 DEB, 48162 is space debris in SSO originally from a launch on Mon, 24 Jun 2002 UTC launched from the Air Force Western Test Range (AFWTR). Debris objects in space refer to the collection of defunct objects orbiting the Earth. Examples of debris include non-operational satellites, rocket bodies, and fragments generated from explosions, collisions, or faulty payload assembly.

Loading next visibility...
Identifier
48162, 2002-032C
Orbit
SSO
Country
Flag of USUS
Related business
Manufacturer
Unknown
Mission
Spacecraft
Bus & Motor
Unknown
Mass
Unknown
Launch date (UTC)
2002-06-24 (24 years ago)
Launch vehicle
Unknown
Launch site
Air Force Western Test Range (AFWTR)
Object type
Payload
Rocket body
Debris
Shape & HBR
Unknown shape, 0.1 m
Radar Cross Section
Medium (>0.1 m² and <1 m²)

Expand to show TLE details & history
Last TLE update: 2 days ago

TLE from 2 days ago
0 NOAA 17 DEB
1 48162U 02032C   26171.35787422  .00002711  00000-0  84210-3 0  9992
2 48162  98.7924 147.5851 0015839 303.9025  56.0656 14.41838389275361
Epoch: 2026-06-20T08:35Z
TLE epoch observation values (Epoch: 2026-06-20T08:35:20.332Z)
Latitude
-0.00006°
Longitude
110.17674°
Altitude
749.079 km
Speed
7.483 km/s
True Right ascension
09h 50m 20s
True Declination
0° 00' 00"
Sunlit
Object was in daylight at epoch
Visualization orbit readout
Latitude
Unknown
Longitude
Unknown
Altitude
Unknown
Speed
Unknown
Apparent Right ascension
Unknown
Apparent Declination
Unknown
Sunlit
N/A
Visualization observer readout
Local Sidereal Time
21:37:24
Azimuth
Unknown
Elevation
Unknown
Doppler factor
Unknown
Orbital elements
Apogee altitude
760.854 km
Perigee altitude
738.275 km
Semi-major axis
7,127.701 km
Eccentricity
0.00158
Inclination
98.7924°
RAAN
147.5851°
Arg. of periapsis
303.9025°
True anomaly
56.21635°
Mean anomaly
56.0656°
Eccentric anomaly
56.14096°
Mean motion
3.60677 °/min
Orbital period
99.81 mins
BSTAR
0.0008421
Loading maneuver chart data...
Computing Atmospheric mass density...

Documentation

Showing up to 5 results
|